DW6471 Weather Reports


Display with metric or nautical units.
time (UTC)temp
F
wind
direction
speed
MPH
gust
MPH
rain 1hr
in
rain 24hr
in
rain mn
in
humidity
%
barometer
mb
20260901231755 87 214 0.0 3.0 0.00 0.21 0.21 75 1015.9
20260901231255 87 204 0.0 2.0 0.00 0.21 0.21 75 1016.0
20260901230753 87 219 0.0 1.0 0.00 0.21 0.21 75 1016.0
20260901230252 87 219 0.0 3.0 0.00 0.21 0.21 74 1016.0
20260901225753 88 219 0.0 3.0 0.00 0.21 0.21 73 1016.0
20260901225253 89 203 0.0 2.0 0.00 0.21 0.21 72 1016.1
20260901224753 89 189 1.0 3.0 0.00 0.21 0.21 70 1016.1
20260901224257 90 203 1.0 7.0 0.00 0.21 0.21 70 1016.0
20260901223750 90 214 1.0 7.0 0.00 0.21 0.21 69 1015.9
20260901223521 90 200 1.0 5.0 0.00 0.21 0.21 69 1015.8
20260901222751 90 105 1.0 5.0 0.00 0.21 0.21 69 1015.8
20260901222251 90 98 1.0 4.0 0.00 0.21 0.21 70 1015.6
20260901221750 90 233 1.0 4.0 0.00 0.21 0.21 71 1015.7
20260901221251 90 115 2.0 4.0 0.00 0.21 0.21 71 1015.7
20260901220755 91 248 1.0 4.0 0.00 0.21 0.21 70 1015.7
20260901220751 91 85 1.0 4.0 0.00 0.21 0.21 70 1015.7
20260901220027 91 248 2.0 6.0 0.00 0.21 0.21 71 1015.8
20260901215751 91 207 2.0 6.0 0.00 0.21 0.21 69 1015.8
20260901214751 92 85 1.0 5.0 0.00 0.21 0.21 68 1015.9
20260901214250 91 131 1.0 5.0 0.00 0.21 0.21 68 1016.0
20260901213749 91 205 1.0 3.0 0.00 0.21 0.21 69 1016.0
20260901213249 90 96 1.0 3.0 0.00 0.21 0.21 68 1016.0
20260901213020 89 100 1.0 2.0 0.00 0.21 0.21 71 1016.1
20260901212247 88 160 1.0 3.0 0.00 0.21 0.21 72 1016.3
20260901211747 88 204 1.0 3.0 0.00 0.21 0.21 76 1016.4
20260901211247 87 200 1.0 4.0 0.00 0.21 0.21 76 1016.3
20260901210748 87 216 1.0 4.0 0.00 0.21 0.21 76 1016.3
20260901210252 87 236 1.0 3.0 0.01 0.21 0.21 77 1016.2
20260901205747 88 214 2.0 5.0 0.01 0.21 0.21 75 1016.1
20260901205246 88 214 2.0 5.0 0.08 0.21 0.21 75 1016.1
20260901204745 89 195 2.0 4.0 0.21 0.21 0.21 72 1016.2
20260901204244 89 198 2.0 4.0 0.21 0.21 0.21 72 1016.4
20260901203743 90 224 2.0 9.0 0.21 0.21 0.21 77 1016.2
20260901203514 89 216 2.0 9.0 0.21 0.22 0.21 77 1016.1
20260901202743 89 236 1.0 4.0 0.21 0.23 0.21 81 1016.2
20260901202243 88 234 1.0 4.0 0.21 0.26 0.21 82 1016.2
20260901201743 87 187 1.0 2.0 0.21 0.32 0.21 81 1016.3
20260901201513 87 210 1.0 4.0 0.21 0.55 0.21 86 1016.3
20260901200742 86 208 1.0 4.0 0.21 0.86 0.21 83 1016.3
20260901200243 86 205 2.0 9.0 0.20 1.15 0.21 81 1016.6
20260901195740 87 97 2.0 9.0 0.20 1.18 0.20 76 1016.6
20260901195241 89 205 1.0 6.0 0.13 1.11 0.13 75 1016.8
20260901194739 89 196 1.0 6.0 0.00 0.98 0.00 72 1016.7
20260901194238 90 285 1.0 4.0 0.00 0.98 0.00 72 1016.5
20260901193739 90 201 2.0 7.0 0.00 0.98 0.00 71 1016.6
20260901193237 90 206 2.0 7.0 0.00 0.98 0.00 68 1016.5
20260901192734 91 238 2.0 7.0 0.00 0.98 0.00 69 1016.7
20260901192235 91 212 2.0 7.0 0.00 0.98 0.00 68 1016.7
20260901191733 91 226 2.0 5.0 0.00 0.98 0.00 66 1016.8
20260901191504 92 221 2.0 5.0 0.00 0.98 0.00 64 1016.8
20260901190733 92 257 1.0 4.0 0.00 0.98 0.00 66 1016.8
20260901190233 92 221 1.0 4.0 0.00 0.98 0.00 68 1016.9
20260901185733 91 255 1.0 4.0 0.00 0.98 0.00 67 1016.9
20260901185231 91 245 1.0 3.0 0.00 0.98 0.00 66 1016.9
20260901184730 92 248 0.0 2.0 0.00 0.98 0.00 65 1017.0
20260901184229 92 216 0.0 2.0 0.00 0.98 0.00 64 1017.0
20260901183729 92 335 1.0 2.0 0.00 0.98 0.00 63 1017.0
20260901183228 93 45 1.0 4.0 0.00 0.98 0.00 61 1017.0
20260901183000 93 77 1.0 4.0 0.00 0.98 0.00 57 1017.1
20260901182227 93 345 1.0 2.0 0.00 0.98 0.00 57 1017.1
20260901181727 93 320 1.0 4.0 0.00 0.98 0.00 60 1017.2
20260901181225 93 330 2.0 4.0 0.00 0.98 0.00 59 1017.3
20260901180725 94 72 2.0 4.0 0.00 0.98 0.00 57 1017.3
20260901180224 93 1 2.0 4.0 0.00 0.98 0.00 57 1017.3
20260901175723 94 338 1.0 4.0 0.00 0.98 0.00 57 1017.4
20260901175222 94 64 1.0 3.0 0.00 0.98 0.00 57 1017.5
20260901174951 94 34 1.0 4.0 0.00 0.98 0.00 58 1017.5
20260901174452 94 91 1.0 4.0 0.00 0.98 0.00 55 1017.6
20260901173721 94 207 1.0 3.0 0.00 0.98 0.00 57 1017.7
20260901173218 94 33 1.0 4.0 0.00 0.98 0.00 57 1017.8
20260901172718 94 207 1.0 4.0 0.00 0.98 0.00 59 1017.9
20260901172219 94 219 1.0 7.0 0.00 0.98 0.00 56 1017.9
20260901171716 94 207 1.0 7.0 0.00 0.98 0.00 58 1018.0
20260901171216 93 197 2.0 6.0 0.00 0.98 0.00 61 1018.0
20260901170945 92 89 2.0 6.0 0.00 0.98 0.00 62 1018.0
20260901170819 92 359 2.0 5.0 0.00 0.98 0.00 62 1018.1
20260901165714 92 12 2.0 5.0 0.00 0.98 0.00 61 1018.2
20260901165446 93 202 1.0 4.0 0.00 0.98 0.00 62 1018.3
20260901164715 93 89 1.0 4.0 0.00 0.98 0.00 64 1018.3
20260901164214 92 232 1.0 3.0 0.00 0.98 0.00 65 1018.3
20260901163715 91 89 2.0 6.0 0.00 0.98 0.00 67 1018.3
20260901163214 91 61 2.0 6.0 0.00 0.98 0.00 65 1018.3
20260901162714 91 40 2.0 5.0 0.00 0.98 0.00 66 1018.3
20260901162445 92 211 2.0 5.0 0.00 0.98 0.00 66 1018.3
20260901161715 91 89 2.0 5.0 0.00 0.98 0.00 64 1018.4
20260901161215 91 105 2.0 5.0 0.00 0.98 0.00 62 1018.4
20260901160945 91 46 2.0 4.0 0.00 0.98 0.00 68 1018.3
20260901160446 91 89 2.0 4.0 0.00 0.98 0.00 67 1018.2
20260901155715 90 54 3.0 5.0 0.00 0.98 0.00 68 1018.2
20260901155214 90 77 3.0 5.0 0.00 0.98 0.00 69 1018.3
20260901154715 90 67 2.0 5.0 0.00 0.98 0.00 65 1018.2
20260901154214 90 117 2.0 4.0 0.00 0.98 0.00 67 1018.3
20260901153715 89 113 2.0 5.0 0.00 0.98 0.00 71 1018.4
20260901153215 89 106 2.0 5.0 0.00 0.98 0.00 71 1018.4
20260901152946 89 68 2.0 4.0 0.00 0.98 0.00 72 1018.3
20260901152215 89 72 2.0 5.0 0.00 0.98 0.00 72 1018.4
20260901151715 88 75 2.0 5.0 0.00 0.98 0.00 74 1018.5
20260901151214 88 73 2.0 6.0 0.00 0.98 0.00 77 1018.4
20260901150715 87 56 2.0 6.0 0.00 0.98 0.00 77 1018.4
20260901150214 87 354 2.0 6.0 0.00 0.98 0.00 77 1018.3
20260901145715 87 73 2.0 6.0 0.00 0.98 0.00 77 1018.4
20260901145445 86 65 2.0 5.0 0.00 0.98 0.00 79 1018.2
20260901144947 86 53 2.0 5.0 0.00 0.98 0.00 80 1018.2
20260901144215 86 79 2.0 4.0 0.00 0.98 0.00 82 1018.2
20260901143715 85 80 3.0 5.0 0.00 0.98 0.00 82 1018.3
20260901143215 85 58 2.0 5.0 0.00 0.98 0.00 82 1018.2
20260901142715 85 70 2.0 4.0 0.00 0.98 0.00 84 1018.3
20260901142215 85 49 2.0 4.0 0.00 0.98 0.00 85 1018.3
20260901141715 85 47 1.0 4.0 0.00 0.98 0.00 85 1018.4
20260901141214 84 60 1.0 3.0 0.00 0.98 0.00 86 1018.4
20260901140714 84 41 2.0 4.0 0.00 0.98 0.00 87 1018.4
20260901140214 83 102 2.0 4.0 0.00 0.98 0.00 88 1018.3
20260901135715 83 65 2.0 4.0 0.00 0.98 0.00 87 1018.4
20260901135215 83 72 2.0 4.0 0.00 0.98 0.00 89 1018.4
20260901134945 82 108 2.0 4.0 0.00 0.98 0.00 90 1018.3
20260901134215 82 57 2.0 4.0 0.00 0.98 0.00 91 1018.3
20260901133715 81 96 2.0 4.0 0.00 0.98 0.00 92 1018.3
20260901133214 81 78 2.0 5.0 0.00 0.98 0.00 93 1018.4
20260901132714 80 36 2.0 5.0 0.00 0.98 0.00 94 1018.3
20260901132215 80 52 2.0 4.0 0.00 0.98 0.00 95 1018.3
20260901131714 80 93 1.0 4.0 0.00 0.98 0.00 95 1018.4
20260901131215 79 74 1.0 4.0 0.00 0.98 0.00 95 1018.4
20260901130714 79 78 1.0 4.0 0.00 0.98 0.00 95 1018.4
20260901130214 79 37 1.0 3.0 0.00 0.98 0.00 95 1018.4
20260901125715 79 43 1.0 4.0 0.00 0.98 0.00 96 1018.5
20260901125445 79 44 2.0 4.0 0.00 0.98 0.00 96 1018.4
20260901124715 78 74 2.0 3.0 0.00 0.98 0.00 96 1018.4
20260901124214 78 77 1.0 2.0 0.00 0.98 0.00 96 1018.4
20260901123714 78 57 0.0 2.0 0.00 0.98 0.00 96 1018.4
20260901123214 78 57 1.0 3.0 0.00 0.98 0.00 96 1018.4
20260901122715 78 57 1.0 3.0 0.00 0.98 0.00 96 1018.3
20260901122445 77 60 1.0 2.0 0.00 0.98 0.00 96 1018.2
20260901121715 77 96 1.0 2.0 0.00 0.98 0.00 96 1018.2
20260901121215 77 73 0.0 2.0 0.00 0.98 0.00 96 1018.1
20260901120719 77 105 0.0 2.0 0.00 0.98 0.00 96 1018.0
20260901120715 77 105 0.0 1.0 0.00 0.98 0.00 96 1018.0
20260901115714 76 105 0.0 2.0 0.00 0.98 0.00 96 1017.9
20260901115215 76 105 0.0 2.0 0.00 0.99 0.00 96 1017.8
20260901114714 76 105 0.0 1.0 0.00 0.99 0.00 96 1017.7
20260901114214 76 105 0.0 1.0 0.00 0.99 0.00 96 1017.6
20260901113715 76 105 0.0 0.0 0.00 0.99 0.00 96 1017.6
20260901113446 76 105 0.0 1.0 0.00 0.99 0.00 96 1017.6
20260901112715 76 105 0.0 1.0 0.00 0.99 0.00 96 1017.5
20260901112214 76 105 0.0 1.0 0.00 0.99 0.00 96 1017.4
20260901111714 76 105 0.0 1.0 0.00 0.99 0.00 96 1017.3
20260901111214 76 105 0.0 1.0 0.00 0.99 0.00 96 1017.3
20260901110715 76 105 0.0 1.0 0.00 0.99 0.00 96 1017.3
20260901110445 76 105 0.0 0.0 0.00 0.99 0.00 96 1017.2
20260901105712 76 105 0.0 0.0 0.00 0.99 0.00 96 1017.1
20260901105210 76 105 0.0 0.0 0.00 0.99 0.00 96 1017.1
20260901104715 76 105 0.0 1.0 0.00 0.99 0.00 96 1017.0
20260901104711 76 105 0.0 0.0 0.00 0.99 0.00 96 1017.0
20260901103707 76 105 0.0 1.0 0.00 0.99 0.00 96 1016.9
20260901103206 76 105 0.0 1.0 0.00 0.99 0.00 96 1016.8
20260901102706 76 105 1.0 2.0 0.00 0.99 0.00 96 1016.8
20260901102207 76 105 0.0 2.0 0.00 0.99 0.00 96 1016.8
20260901101937 76 79 0.0 2.0 0.00 0.99 0.00 96 1016.8
20260901101438 76 221 0.0 1.0 0.00 0.99 0.00 96 1016.7
20260901100707 76 221 0.0 1.0 0.00 0.99 0.00 96 1016.7
20260901100206 76 221 0.0 0.0 0.00 0.99 0.00 96 1016.8
20260901095703 76 221 0.0 0.0 0.00 0.99 0.00 96 1016.8
20260901095203 76 221 0.0 0.0 0.00 0.99 0.00 96 1016.7
20260901094658 76 221 0.0 0.0 0.00 0.99 0.00 96 1016.6
20260901094159 76 221 0.0 0.0 0.00 0.99 0.00 96 1016.5
20260901093659 76 221 0.0 0.0 0.00 0.99 0.00 96 1016.5
20260901093158 76 221 0.0 0.0 0.00 0.99 0.00 96 1016.4
20260901092930 76 221 0.0 0.0 0.00 0.99 0.00 96 1016.4
20260901092158 76 221 0.0 0.0 0.00 0.99 0.00 96 1016.4
20260901091929 76 221 0.0 0.0 0.00 0.99 0.00 96 1016.3
20260901091158 75 221 0.0 0.0 0.00 0.99 0.00 96 1016.4
20260901090658 76 221 0.0 0.0 0.00 0.99 0.00 96 1016.4
20260901090159 76 221 0.0 0.0 0.00 0.99 0.00 96 1016.4
20260901085658 75 221 0.0 0.0 0.00 0.99 0.00 96 1016.3
20260901085156 75 221 0.0 0.0 0.00 0.99 0.00 96 1016.3
20260901084653 75 221 0.0 0.0 0.00 0.99 0.00 96 1016.3
20260901084150 75 221 0.0 0.0 0.00 0.99 0.00 96 1016.3
20260901083650 76 221 0.0 0.0 0.00 0.99 0.00 96 1016.4
20260901083150 76 221 0.0 0.0 0.00 0.99 0.00 96 1016.4
20260901082650 76 221 0.0 0.0 0.00 0.99 0.00 96 1016.5
20260901082148 76 221 0.0 0.0 0.00 0.99 0.00 96 1016.5
20260901081647 76 221 0.0 1.0 0.00 0.99 0.00 96 1016.6
20260901081146 76 221 0.0 1.0 0.00 0.99 0.00 96 1016.6
20260901080646 75 221 0.0 0.0 0.00 0.99 0.00 96 1016.6
20260901080145 75 221 0.0 0.0 0.00 0.99 0.00 96 1016.7
20260901075644 75 221 0.0 1.0 0.00 0.99 0.00 96 1016.7
20260901075145 75 221 0.0 1.0 0.00 0.99 0.00 96 1016.7
20260901074643 75 221 0.0 0.0 0.00 0.99 0.00 96 1016.7
20260901074142 75 221 0.0 0.0 0.00 0.99 0.00 96 1016.6
20260901073643 75 221 0.0 0.0 0.00 0.99 0.00 96 1016.7
20260901073413 75 221 0.0 0.0 0.00 0.99 0.00 96 1016.7
20260901072642 75 221 0.0 0.0 0.00 0.99 0.00 96 1016.7
20260901072142 76 221 0.0 0.0 0.00 0.99 0.00 96 1016.7
20260901071642 76 221 0.0 0.0 0.00 0.99 0.00 96 1016.7
20260901071143 76 221 0.0 0.0 0.00 0.99 0.00 96 1016.8
20260901070642 75 221 0.0 0.0 0.00 0.99 0.00 96 1016.8
20260901070140 75 221 0.0 0.0 0.00 0.99 0.00 96 1016.8
20260901065639 75 221 0.0 0.0 0.00 0.99 0.00 96 1016.8
20260901065138 75 221 0.0 0.0 0.00 0.99 0.00 96 1016.8
20260901064638 76 221 0.0 0.0 0.00 0.99 0.00 96 1016.7
20260901064137 76 221 0.0 0.0 0.00 0.99 0.00 96 1016.8
20260901063632 76 221 0.0 0.0 0.00 0.99 0.00 96 1016.8
20260901063132 76 221 0.0 0.0 0.00 0.99 0.00 96 1016.9
20260901062632 76 221 0.0 0.0 0.00 0.99 0.00 96 1017.0
20260901062132 76 221 0.0 0.0 0.00 0.99 0.00 96 1017.0
20260901061633 76 221 0.0 0.0 0.00 0.99 0.00 96 1017.1
20260901061132 76 221 0.0 0.0 0.00 0.99 0.00 96 1017.1
20260901060632 76 221 0.0 0.0 0.00 0.99 0.00 96 1017.1
20260901060403 76 221 0.0 0.0 0.00 0.99 0.00 96 1017.1
20260901055632 76 221 0.0 0.0 0.00 0.99 0.00 96 1017.1
20260901055402 76 221 0.0 0.0 0.00 0.99 0.00 96 1017.0
20260901054904 76 221 0.0 0.0 0.00 0.99 0.00 96 1017.0
20260901054132 76 221 0.0 0.0 0.00 0.99 0.00 96 1017.0
20260901053632 76 221 0.0 0.0 0.00 0.99 0.00 96 1017.0
20260901053133 76 221 0.0 0.0 0.00 0.99 0.00 96 1017.0
20260901052632 76 221 0.0 0.0 0.00 0.99 0.00 96 1017.1
20260901052132 76 221 0.0 0.0 0.00 0.99 0.00 96 1017.0
20260901051632 76 221 0.0 0.0 0.00 0.99 0.00 96 1017.1
20260901051130 76 221 0.0 0.0 0.00 0.99 0.00 96 1017.0
20260901050630 76 221 0.0 0.0 0.00 0.99 0.00 96 1017.1
20260901050130 76 221 0.0 0.0 0.00 0.99 0.00 96 1017.1
20260901045628 76 221 0.0 0.0 0.00 0.99 0.99 96 1017.0
20260901045359 76 221 0.0 0.0 0.00 0.99 0.99 96 1016.9
20260901044628 76 221 0.0 0.0 0.00 0.99 0.99 96 1016.9
20260901044128 76 221 0.0 0.0 0.00 0.99 0.99 96 1017.0
20260901043900 76 221 0.0 0.0 0.00 0.99 0.99 96 1017.0
20260901043129 76 221 0.0 0.0 0.00 0.99 0.99 96 1017.0
20260901042629 76 221 0.0 0.0 0.00 0.99 0.99 96 1017.0
20260901042129 76 221 0.0 0.0 0.00 0.99 0.99 96 1017.0
20260901041858 76 221 0.0 0.0 0.00 0.99 0.99 95 1017.1
20260901041127 76 221 0.0 0.0 0.00 0.99 0.99 95 1017.0
20260901040627 76 221 0.0 0.0 0.00 0.99 0.99 95 1017.1
20260901040127 77 221 0.0 0.0 0.00 0.99 0.99 95 1017.1
20260901035627 77 221 0.0 0.0 0.00 0.99 0.99 95 1017.1
20260901035357 77 221 0.0 0.0 0.00 0.99 0.99 95 1017.0
20260901034627 77 221 0.0 0.0 0.00 0.99 0.99 95 1017.1
20260901034127 77 221 0.0 0.0 0.00 0.99 0.99 95 1017.0
20260901033626 77 221 0.0 0.0 0.00 0.99 0.99 95 1017.1
20260901033127 77 221 0.0 0.0 0.00 0.99 0.99 95 1017.2
20260901032624 77 221 0.0 0.0 0.00 0.99 0.99 95 1017.2
20260901032124 77 221 0.0 0.0 0.00 0.99 0.99 95 1017.2
20260901031625 77 221 0.0 0.0 0.00 0.99 0.99 95 1017.2
20260901031357 77 221 0.0 0.0 0.00 0.99 0.99 95 1017.2
20260901030625 77 221 0.0 0.0 0.00 0.99 0.99 95 1017.3
20260901030356 77 221 0.0 0.0 0.00 0.99 0.99 95 1017.2
20260901025626 77 221 0.0 0.0 0.00 0.99 0.99 95 1017.2
20260901025125 77 221 0.0 0.0 0.00 0.99 0.99 95 1017.2
20260901024624 77 221 0.0 0.0 0.00 0.99 0.99 95 1017.2
20260901024123 77 221 0.0 0.0 0.00 0.99 0.99 95 1017.2
20260901023620 77 221 0.0 0.0 0.00 0.99 0.99 95 1017.1
20260901023351 77 221 0.0 0.0 0.00 0.99 0.99 95 1017.0
20260901022620 77 221 0.0 0.0 0.00 0.99 0.99 95 1017.0
20260901022121 77 221 0.0 0.0 0.00 0.99 0.99 95 1016.9
20260901021853 77 221 0.0 0.0 0.00 0.99 0.99 95 1016.9
20260901021127 78 221 0.0 1.0 0.00 0.99 0.99 95 1016.8
20260901021121 78 221 0.0 0.0 0.00 0.99 0.99 95 1017.0
20260901020621 78 221 0.0 1.0 0.00 0.99 0.99 95 1016.9
20260901015621 78 221 0.0 0.0 0.00 0.99 0.99 95 1016.8
20260901015350 78 221 0.0 1.0 0.00 0.99 0.99 95 1016.8
20260901014619 78 221 0.0 1.0 0.00 0.99 0.99 95 1016.8
20260901014351 78 221 0.0 0.0 0.00 0.99 0.99 95 1016.7
20260901013617 78 221 0.0 0.0 0.00 0.99 0.99 95 1016.6
20260901013117 78 221 0.0 0.0 0.00 0.99 0.99 95 1016.4
20260901012615 78 221 0.0 0.0 0.00 0.99 0.99 95 1016.5
20260901012114 78 221 0.0 0.0 0.00 0.99 0.99 95 1016.5
20260901011615 78 221 0.0 0.0 0.00 0.99 0.99 95 1016.5
20260901011344 78 221 0.0 0.0 0.00 0.99 0.99 95 1016.4
20260901010610 78 221 0.0 0.0 0.00 0.99 0.99 95 1016.4
20260901010110 78 221 0.0 0.0 0.00 0.99 0.99 94 1016.5
20260901005842 78 221 0.0 0.0 0.00 0.99 0.99 94 1016.4
20260901005111 78 221 0.0 0.0 0.00 0.99 0.99 94 1016.4
20260901004608 79 221 0.0 0.0 0.00 0.99 0.99 94 1016.4
20260901004109 79 221 0.0 0.0 0.00 0.99 0.99 94 1016.4
20260901003607 79 221 0.0 0.0 0.00 0.99 0.99 94 1016.3
20260901003337 79 221 0.0 0.0 0.00 0.99 0.99 94 1016.3
20260901002606 79 221 0.0 0.0 0.00 0.99 0.99 94 1016.2
20260901002105 79 221 0.0 0.0 0.00 0.99 0.99 94 1016.1
20260901001605 80 221 0.0 0.0 0.00 0.99 0.99 93 1016.0
20260901001336 80 221 0.0 0.0 0.00 0.99 0.99 93 1016.0
20260901000834 80 221 0.0 0.0 0.00 0.99 0.99 93 1015.9
20260831235601 81 221 0.0 0.0 0.00 0.99 0.99 93 1016.0
20260831235101 81 221 0.0 0.0 0.00 0.99 0.99 92 1016.0
20260831234601 81 221 0.0 0.0 0.00 0.99 0.99 92 1015.9
20260831234059 81 221 0.0 0.0 0.00 0.99 0.99 92 1016.0
20260831233830 82 221 0.0 0.0 0.00 0.99 0.99 92 1015.9
20260831233057 82 221 0.0 0.0 0.00 0.99 0.99 91 1015.9
20260831232828 82 221 0.0 0.0 0.00 0.99 0.99 90 1016.0
20260831232057 83 221 0.0 1.0 0.00 0.99 0.99 89 1016.0